<?xml version="1.0"?>
<gpx xmlns="http://www.topografix.com/GPX/1/1" xmlns:xsi="http://www.w3.org/2001/XMLSchema-instance" version="1.1" creator="GPX RubyGem 1.0.0 -- http://dougfales.github.io/gpx/" xsi:schemaLocation="http://www.topografix.com/GPX/1/1 http://www.topografix.com/GPX/1/1/gpx.xsd">
  <metadata>
    <name/>
    <time>2026-05-09T06:54:50+00:00</time>
    <bound minlat="90.0" minlon="180.0" maxlat="-90.0" maxlon="-180.0"/>
  </metadata>
  <trk>
    <name/>
    <trkseg>
      <trkpt lat="44.167097" lon="4.575916">
        <time>1970-01-01T00:00:00+00:00</time>
        <ele>70.0</ele>
      </trkpt>
      <trkpt lat="44.167063" lon="4.575929">
        <time>1970-01-01T00:00:00+00:00</time>
        <ele>70.0</ele>
      </trkpt>
      <trkpt lat="44.167033" lon="4.575801">
        <time>1970-01-01T00:00:00+00:00</time>
        <ele>70.0</ele>
      </trkpt>
      <trkpt lat="44.166723" lon="4.575897">
        <time>1970-01-01T00:00:00+00:00</time>
        <ele>69.0</ele>
      </trkpt>
      <trkpt lat="44.166761" lon="4.576019">
        <time>1970-01-01T00:00:00+00:00</time>
        <ele>69.0</ele>
      </trkpt>
      <trkpt lat="44.166814" lon="4.576185">
        <time>1970-01-01T00:00:00+00:00</time>
        <ele>69.0</ele>
      </trkpt>
      <trkpt lat="44.166843" lon="4.576337">
        <time>1970-01-01T00:00:00+00:00</time>
        <ele>68.0</ele>
      </trkpt>
      <trkpt lat="44.166858" lon="4.576527">
        <time>1970-01-01T00:00:00+00:00</time>
        <ele>68.0</ele>
      </trkpt>
      <trkpt lat="44.166849" lon="4.576888">
        <time>1970-01-01T00:00:00+00:00</time>
        <ele>65.0</ele>
      </trkpt>
      <trkpt lat="44.166756" lon="4.576924">
        <time>1970-01-01T00:00:00+00:00</time>
        <ele>65.0</ele>
      </trkpt>
      <trkpt lat="44.166063" lon="4.576976">
        <time>1970-01-01T00:00:00+00:00</time>
        <ele>68.0</ele>
      </trkpt>
      <trkpt lat="44.164871" lon="4.577024">
        <time>1970-01-01T00:00:00+00:00</time>
        <ele>71.0</ele>
      </trkpt>
      <trkpt lat="44.164646" lon="4.577129">
        <time>1970-01-01T00:00:00+00:00</time>
        <ele>73.0</ele>
      </trkpt>
      <trkpt lat="44.164559" lon="4.577219">
        <time>1970-01-01T00:00:00+00:00</time>
        <ele>72.0</ele>
      </trkpt>
      <trkpt lat="44.164348" lon="4.577206">
        <time>1970-01-01T00:00:00+00:00</time>
        <ele>72.0</ele>
      </trkpt>
      <trkpt lat="44.163937" lon="4.577027">
        <time>1970-01-01T00:00:00+00:00</time>
        <ele>73.0</ele>
      </trkpt>
      <trkpt lat="44.16364" lon="4.576833">
        <time>1970-01-01T00:00:00+00:00</time>
        <ele>75.0</ele>
      </trkpt>
      <trkpt lat="44.16346" lon="4.576459">
        <time>1970-01-01T00:00:00+00:00</time>
        <ele>81.0</ele>
      </trkpt>
      <trkpt lat="44.16279" lon="4.576129">
        <time>1970-01-01T00:00:00+00:00</time>
        <ele>86.0</ele>
      </trkpt>
      <trkpt lat="44.162633" lon="4.575977">
        <time>1970-01-01T00:00:00+00:00</time>
        <ele>88.0</ele>
      </trkpt>
      <trkpt lat="44.162303" lon="4.575715">
        <time>1970-01-01T00:00:00+00:00</time>
        <ele>91.0</ele>
      </trkpt>
      <trkpt lat="44.162268" lon="4.575644">
        <time>1970-01-01T00:00:00+00:00</time>
        <ele>92.0</ele>
      </trkpt>
      <trkpt lat="44.161593" lon="4.575232">
        <time>1970-01-01T00:00:00+00:00</time>
        <ele>97.0</ele>
      </trkpt>
      <trkpt lat="44.161406" lon="4.575205">
        <time>1970-01-01T00:00:00+00:00</time>
        <ele>97.0</ele>
      </trkpt>
      <trkpt lat="44.161216" lon="4.575133">
        <time>1970-01-01T00:00:00+00:00</time>
        <ele>98.0</ele>
      </trkpt>
      <trkpt lat="44.161036" lon="4.575132">
        <time>1970-01-01T00:00:00+00:00</time>
        <ele>98.0</ele>
      </trkpt>
      <trkpt lat="44.160984" lon="4.575182">
        <time>1970-01-01T00:00:00+00:00</time>
        <ele>97.0</ele>
      </trkpt>
      <trkpt lat="44.160891" lon="4.575428">
        <time>1970-01-01T00:00:00+00:00</time>
        <ele>92.0</ele>
      </trkpt>
      <trkpt lat="44.16089" lon="4.575497">
        <time>1970-01-01T00:00:00+00:00</time>
        <ele>91.0</ele>
      </trkpt>
      <trkpt lat="44.160829" lon="4.575601">
        <time>1970-01-01T00:00:00+00:00</time>
        <ele>89.0</ele>
      </trkpt>
      <trkpt lat="44.160725" lon="4.575662">
        <time>1970-01-01T00:00:00+00:00</time>
        <ele>88.0</ele>
      </trkpt>
      <trkpt lat="44.160546" lon="4.575862">
        <time>1970-01-01T00:00:00+00:00</time>
        <ele>86.0</ele>
      </trkpt>
      <trkpt lat="44.160488" lon="4.575904">
        <time>1970-01-01T00:00:00+00:00</time>
        <ele>86.0</ele>
      </trkpt>
      <trkpt lat="44.160423" lon="4.575925">
        <time>1970-01-01T00:00:00+00:00</time>
        <ele>85.0</ele>
      </trkpt>
      <trkpt lat="44.160227" lon="4.575904">
        <time>1970-01-01T00:00:00+00:00</time>
        <ele>87.0</ele>
      </trkpt>
      <trkpt lat="44.160074" lon="4.575958">
        <time>1970-01-01T00:00:00+00:00</time>
        <ele>87.0</ele>
      </trkpt>
      <trkpt lat="44.159986" lon="4.575884">
        <time>1970-01-01T00:00:00+00:00</time>
        <ele>89.0</ele>
      </trkpt>
      <trkpt lat="44.159918" lon="4.575882">
        <time>1970-01-01T00:00:00+00:00</time>
        <ele>89.0</ele>
      </trkpt>
      <trkpt lat="44.159878" lon="4.575939">
        <time>1970-01-01T00:00:00+00:00</time>
        <ele>88.0</ele>
      </trkpt>
      <trkpt lat="44.1597" lon="4.576024">
        <time>1970-01-01T00:00:00+00:00</time>
        <ele>88.0</ele>
      </trkpt>
      <trkpt lat="44.159427" lon="4.576035">
        <time>1970-01-01T00:00:00+00:00</time>
        <ele>89.0</ele>
      </trkpt>
      <trkpt lat="44.159216" lon="4.576073">
        <time>1970-01-01T00:00:00+00:00</time>
        <ele>88.0</ele>
      </trkpt>
      <trkpt lat="44.159011" lon="4.576023">
        <time>1970-01-01T00:00:00+00:00</time>
        <ele>89.0</ele>
      </trkpt>
      <trkpt lat="44.158836" lon="4.576082">
        <time>1970-01-01T00:00:00+00:00</time>
        <ele>88.0</ele>
      </trkpt>
      <trkpt lat="44.158801" lon="4.576067">
        <time>1970-01-01T00:00:00+00:00</time>
        <ele>88.0</ele>
      </trkpt>
      <trkpt lat="44.158534" lon="4.576083">
        <time>1970-01-01T00:00:00+00:00</time>
        <ele>89.0</ele>
      </trkpt>
      <trkpt lat="44.158492" lon="4.57611">
        <time>1970-01-01T00:00:00+00:00</time>
        <ele>89.0</ele>
      </trkpt>
      <trkpt lat="44.15837" lon="4.576082">
        <time>1970-01-01T00:00:00+00:00</time>
        <ele>89.0</ele>
      </trkpt>
      <trkpt lat="44.15821" lon="4.57614">
        <time>1970-01-01T00:00:00+00:00</time>
        <ele>89.0</ele>
      </trkpt>
      <trkpt lat="44.15809" lon="4.576216">
        <time>1970-01-01T00:00:00+00:00</time>
        <ele>89.0</ele>
      </trkpt>
      <trkpt lat="44.158" lon="4.576302">
        <time>1970-01-01T00:00:00+00:00</time>
        <ele>87.0</ele>
      </trkpt>
      <trkpt lat="44.157873" lon="4.576328">
        <time>1970-01-01T00:00:00+00:00</time>
        <ele>88.0</ele>
      </trkpt>
      <trkpt lat="44.157759" lon="4.576302">
        <time>1970-01-01T00:00:00+00:00</time>
        <ele>89.0</ele>
      </trkpt>
      <trkpt lat="44.157688" lon="4.576324">
        <time>1970-01-01T00:00:00+00:00</time>
        <ele>89.0</ele>
      </trkpt>
      <trkpt lat="44.157574" lon="4.576401">
        <time>1970-01-01T00:00:00+00:00</time>
        <ele>89.0</ele>
      </trkpt>
      <trkpt lat="44.157326" lon="4.576495">
        <time>1970-01-01T00:00:00+00:00</time>
        <ele>89.0</ele>
      </trkpt>
      <trkpt lat="44.157251" lon="4.576567">
        <time>1970-01-01T00:00:00+00:00</time>
        <ele>91.0</ele>
      </trkpt>
      <trkpt lat="44.157153" lon="4.576813">
        <time>1970-01-01T00:00:00+00:00</time>
        <ele>90.0</ele>
      </trkpt>
      <trkpt lat="44.157017" lon="4.576895">
        <time>1970-01-01T00:00:00+00:00</time>
        <ele>90.0</ele>
      </trkpt>
      <trkpt lat="44.15689" lon="4.576898">
        <time>1970-01-01T00:00:00+00:00</time>
        <ele>91.0</ele>
      </trkpt>
      <trkpt lat="44.15682" lon="4.576868">
        <time>1970-01-01T00:00:00+00:00</time>
        <ele>92.0</ele>
      </trkpt>
      <trkpt lat="44.156714" lon="4.576923">
        <time>1970-01-01T00:00:00+00:00</time>
        <ele>92.0</ele>
      </trkpt>
      <trkpt lat="44.156555" lon="4.576927">
        <time>1970-01-01T00:00:00+00:00</time>
        <ele>93.0</ele>
      </trkpt>
      <trkpt lat="44.156513" lon="4.576918">
        <time>1970-01-01T00:00:00+00:00</time>
        <ele>93.0</ele>
      </trkpt>
      <trkpt lat="44.156262" lon="4.57675">
        <time>1970-01-01T00:00:00+00:00</time>
        <ele>93.0</ele>
      </trkpt>
      <trkpt lat="44.156193" lon="4.576738">
        <time>1970-01-01T00:00:00+00:00</time>
        <ele>93.0</ele>
      </trkpt>
      <trkpt lat="44.15619" lon="4.576973">
        <time>1970-01-01T00:00:00+00:00</time>
        <ele>91.0</ele>
      </trkpt>
      <trkpt lat="44.156224" lon="4.577536">
        <time>1970-01-01T00:00:00+00:00</time>
        <ele>87.0</ele>
      </trkpt>
      <trkpt lat="44.156212" lon="4.577833">
        <time>1970-01-01T00:00:00+00:00</time>
        <ele>85.0</ele>
      </trkpt>
      <trkpt lat="44.156083" lon="4.578499">
        <time>1970-01-01T00:00:00+00:00</time>
        <ele>79.0</ele>
      </trkpt>
      <trkpt lat="44.156037" lon="4.578707">
        <time>1970-01-01T00:00:00+00:00</time>
        <ele>79.0</ele>
      </trkpt>
      <trkpt lat="44.155979" lon="4.578879">
        <time>1970-01-01T00:00:00+00:00</time>
        <ele>79.0</ele>
      </trkpt>
      <trkpt lat="44.155851" lon="4.579075">
        <time>1970-01-01T00:00:00+00:00</time>
        <ele>79.0</ele>
      </trkpt>
      <trkpt lat="44.1558" lon="4.579157">
        <time>1970-01-01T00:00:00+00:00</time>
        <ele>80.0</ele>
      </trkpt>
      <trkpt lat="44.155721" lon="4.579599">
        <time>1970-01-01T00:00:00+00:00</time>
        <ele>82.0</ele>
      </trkpt>
      <trkpt lat="44.155724" lon="4.579687">
        <time>1970-01-01T00:00:00+00:00</time>
        <ele>83.0</ele>
      </trkpt>
      <trkpt lat="44.155565" lon="4.57969">
        <time>1970-01-01T00:00:00+00:00</time>
        <ele>85.0</ele>
      </trkpt>
      <trkpt lat="44.155018" lon="4.579433">
        <time>1970-01-01T00:00:00+00:00</time>
        <ele>85.0</ele>
      </trkpt>
      <trkpt lat="44.154803" lon="4.579509">
        <time>1970-01-01T00:00:00+00:00</time>
        <ele>86.0</ele>
      </trkpt>
      <trkpt lat="44.154668" lon="4.579523">
        <time>1970-01-01T00:00:00+00:00</time>
        <ele>86.0</ele>
      </trkpt>
      <trkpt lat="44.154386" lon="4.579369">
        <time>1970-01-01T00:00:00+00:00</time>
        <ele>85.0</ele>
      </trkpt>
      <trkpt lat="44.154086" lon="4.579444">
        <time>1970-01-01T00:00:00+00:00</time>
        <ele>88.0</ele>
      </trkpt>
      <trkpt lat="44.153882" lon="4.579467">
        <time>1970-01-01T00:00:00+00:00</time>
        <ele>90.0</ele>
      </trkpt>
      <trkpt lat="44.153781" lon="4.579434">
        <time>1970-01-01T00:00:00+00:00</time>
        <ele>90.0</ele>
      </trkpt>
      <trkpt lat="44.153579" lon="4.579468">
        <time>1970-01-01T00:00:00+00:00</time>
        <ele>92.0</ele>
      </trkpt>
      <trkpt lat="44.153557" lon="4.579503">
        <time>1970-01-01T00:00:00+00:00</time>
        <ele>93.0</ele>
      </trkpt>
      <trkpt lat="44.153492" lon="4.579547">
        <time>1970-01-01T00:00:00+00:00</time>
        <ele>94.0</ele>
      </trkpt>
      <trkpt lat="44.153222" lon="4.579556">
        <time>1970-01-01T00:00:00+00:00</time>
        <ele>95.0</ele>
      </trkpt>
      <trkpt lat="44.15305" lon="4.579598">
        <time>1970-01-01T00:00:00+00:00</time>
        <ele>95.0</ele>
      </trkpt>
      <trkpt lat="44.152824" lon="4.57955">
        <time>1970-01-01T00:00:00+00:00</time>
        <ele>95.0</ele>
      </trkpt>
      <trkpt lat="44.152742" lon="4.579555">
        <time>1970-01-01T00:00:00+00:00</time>
        <ele>95.0</ele>
      </trkpt>
      <trkpt lat="44.152458" lon="4.579607">
        <time>1970-01-01T00:00:00+00:00</time>
        <ele>95.0</ele>
      </trkpt>
      <trkpt lat="44.152004" lon="4.579797">
        <time>1970-01-01T00:00:00+00:00</time>
        <ele>95.0</ele>
      </trkpt>
      <trkpt lat="44.151794" lon="4.579815">
        <time>1970-01-01T00:00:00+00:00</time>
        <ele>95.0</ele>
      </trkpt>
      <trkpt lat="44.151481" lon="4.5798">
        <time>1970-01-01T00:00:00+00:00</time>
        <ele>95.0</ele>
      </trkpt>
      <trkpt lat="44.151415" lon="4.579817">
        <time>1970-01-01T00:00:00+00:00</time>
        <ele>95.0</ele>
      </trkpt>
      <trkpt lat="44.151365" lon="4.579889">
        <time>1970-01-01T00:00:00+00:00</time>
        <ele>96.0</ele>
      </trkpt>
      <trkpt lat="44.151236" lon="4.579885">
        <time>1970-01-01T00:00:00+00:00</time>
        <ele>96.0</ele>
      </trkpt>
      <trkpt lat="44.151186" lon="4.579902">
        <time>1970-01-01T00:00:00+00:00</time>
        <ele>96.0</ele>
      </trkpt>
      <trkpt lat="44.151011" lon="4.579877">
        <time>1970-01-01T00:00:00+00:00</time>
        <ele>96.0</ele>
      </trkpt>
      <trkpt lat="44.150756" lon="4.579886">
        <time>1970-01-01T00:00:00+00:00</time>
        <ele>98.0</ele>
      </trkpt>
      <trkpt lat="44.150416" lon="4.580068">
        <time>1970-01-01T00:00:00+00:00</time>
        <ele>99.0</ele>
      </trkpt>
      <trkpt lat="44.150085" lon="4.58005">
        <time>1970-01-01T00:00:00+00:00</time>
        <ele>101.0</ele>
      </trkpt>
      <trkpt lat="44.148996" lon="4.579775">
        <time>1970-01-01T00:00:00+00:00</time>
        <ele>104.0</ele>
      </trkpt>
      <trkpt lat="44.148904" lon="4.579784">
        <time>1970-01-01T00:00:00+00:00</time>
        <ele>104.0</ele>
      </trkpt>
      <trkpt lat="44.148839" lon="4.579841">
        <time>1970-01-01T00:00:00+00:00</time>
        <ele>104.0</ele>
      </trkpt>
      <trkpt lat="44.148656" lon="4.579688">
        <time>1970-01-01T00:00:00+00:00</time>
        <ele>104.0</ele>
      </trkpt>
      <trkpt lat="44.148485" lon="4.579624">
        <time>1970-01-01T00:00:00+00:00</time>
        <ele>104.0</ele>
      </trkpt>
      <trkpt lat="44.148252" lon="4.579597">
        <time>1970-01-01T00:00:00+00:00</time>
        <ele>104.0</ele>
      </trkpt>
      <trkpt lat="44.147731" lon="4.579599">
        <time>1970-01-01T00:00:00+00:00</time>
        <ele>103.0</ele>
      </trkpt>
      <trkpt lat="44.14756" lon="4.579573">
        <time>1970-01-01T00:00:00+00:00</time>
        <ele>104.0</ele>
      </trkpt>
      <trkpt lat="44.147372" lon="4.579487">
        <time>1970-01-01T00:00:00+00:00</time>
        <ele>105.0</ele>
      </trkpt>
      <trkpt lat="44.147311" lon="4.579455">
        <time>1970-01-01T00:00:00+00:00</time>
        <ele>105.0</ele>
      </trkpt>
      <trkpt lat="44.14666" lon="4.578843">
        <time>1970-01-01T00:00:00+00:00</time>
        <ele>107.0</ele>
      </trkpt>
      <trkpt lat="44.146658" lon="4.578841">
        <time>1970-01-01T00:00:00+00:00</time>
        <ele>107.0</ele>
      </trkpt>
      <trkpt lat="44.146658" lon="4.578841">
        <time>1970-01-01T00:00:00+00:00</time>
        <ele>107.0</ele>
      </trkpt>
      <trkpt lat="44.14666" lon="4.578843">
        <time>1970-01-01T00:00:00+00:00</time>
        <ele>107.0</ele>
      </trkpt>
      <trkpt lat="44.147311" lon="4.579455">
        <time>1970-01-01T00:00:00+00:00</time>
        <ele>105.0</ele>
      </trkpt>
      <trkpt lat="44.147372" lon="4.579487">
        <time>1970-01-01T00:00:00+00:00</time>
        <ele>105.0</ele>
      </trkpt>
      <trkpt lat="44.14756" lon="4.579573">
        <time>1970-01-01T00:00:00+00:00</time>
        <ele>104.0</ele>
      </trkpt>
      <trkpt lat="44.147731" lon="4.579599">
        <time>1970-01-01T00:00:00+00:00</time>
        <ele>103.0</ele>
      </trkpt>
      <trkpt lat="44.148252" lon="4.579597">
        <time>1970-01-01T00:00:00+00:00</time>
        <ele>104.0</ele>
      </trkpt>
      <trkpt lat="44.148485" lon="4.579624">
        <time>1970-01-01T00:00:00+00:00</time>
        <ele>104.0</ele>
      </trkpt>
      <trkpt lat="44.148656" lon="4.579688">
        <time>1970-01-01T00:00:00+00:00</time>
        <ele>104.0</ele>
      </trkpt>
      <trkpt lat="44.148839" lon="4.579841">
        <time>1970-01-01T00:00:00+00:00</time>
        <ele>104.0</ele>
      </trkpt>
      <trkpt lat="44.148904" lon="4.579784">
        <time>1970-01-01T00:00:00+00:00</time>
        <ele>104.0</ele>
      </trkpt>
      <trkpt lat="44.148996" lon="4.579775">
        <time>1970-01-01T00:00:00+00:00</time>
        <ele>104.0</ele>
      </trkpt>
      <trkpt lat="44.150085" lon="4.58005">
        <time>1970-01-01T00:00:00+00:00</time>
        <ele>101.0</ele>
      </trkpt>
      <trkpt lat="44.150416" lon="4.580068">
        <time>1970-01-01T00:00:00+00:00</time>
        <ele>99.0</ele>
      </trkpt>
      <trkpt lat="44.150756" lon="4.579886">
        <time>1970-01-01T00:00:00+00:00</time>
        <ele>98.0</ele>
      </trkpt>
      <trkpt lat="44.151011" lon="4.579877">
        <time>1970-01-01T00:00:00+00:00</time>
        <ele>96.0</ele>
      </trkpt>
      <trkpt lat="44.151186" lon="4.579902">
        <time>1970-01-01T00:00:00+00:00</time>
        <ele>96.0</ele>
      </trkpt>
      <trkpt lat="44.151236" lon="4.579885">
        <time>1970-01-01T00:00:00+00:00</time>
        <ele>96.0</ele>
      </trkpt>
      <trkpt lat="44.151365" lon="4.579889">
        <time>1970-01-01T00:00:00+00:00</time>
        <ele>96.0</ele>
      </trkpt>
      <trkpt lat="44.151415" lon="4.579817">
        <time>1970-01-01T00:00:00+00:00</time>
        <ele>95.0</ele>
      </trkpt>
      <trkpt lat="44.151481" lon="4.5798">
        <time>1970-01-01T00:00:00+00:00</time>
        <ele>95.0</ele>
      </trkpt>
      <trkpt lat="44.151794" lon="4.579815">
        <time>1970-01-01T00:00:00+00:00</time>
        <ele>95.0</ele>
      </trkpt>
      <trkpt lat="44.152004" lon="4.579797">
        <time>1970-01-01T00:00:00+00:00</time>
        <ele>95.0</ele>
      </trkpt>
      <trkpt lat="44.152458" lon="4.579607">
        <time>1970-01-01T00:00:00+00:00</time>
        <ele>95.0</ele>
      </trkpt>
      <trkpt lat="44.152742" lon="4.579555">
        <time>1970-01-01T00:00:00+00:00</time>
        <ele>95.0</ele>
      </trkpt>
      <trkpt lat="44.152824" lon="4.57955">
        <time>1970-01-01T00:00:00+00:00</time>
        <ele>95.0</ele>
      </trkpt>
      <trkpt lat="44.15305" lon="4.579598">
        <time>1970-01-01T00:00:00+00:00</time>
        <ele>95.0</ele>
      </trkpt>
      <trkpt lat="44.15319" lon="4.5796">
        <time>1970-01-01T00:00:00+00:00</time>
        <ele>95.0</ele>
      </trkpt>
      <trkpt lat="44.153845" lon="4.579797">
        <time>1970-01-01T00:00:00+00:00</time>
        <ele>96.0</ele>
      </trkpt>
      <trkpt lat="44.154053" lon="4.579911">
        <time>1970-01-01T00:00:00+00:00</time>
        <ele>96.0</ele>
      </trkpt>
      <trkpt lat="44.154217" lon="4.580029">
        <time>1970-01-01T00:00:00+00:00</time>
        <ele>96.0</ele>
      </trkpt>
      <trkpt lat="44.15443" lon="4.580105">
        <time>1970-01-01T00:00:00+00:00</time>
        <ele>96.0</ele>
      </trkpt>
      <trkpt lat="44.154649" lon="4.580162">
        <time>1970-01-01T00:00:00+00:00</time>
        <ele>95.0</ele>
      </trkpt>
      <trkpt lat="44.154834" lon="4.58015">
        <time>1970-01-01T00:00:00+00:00</time>
        <ele>95.0</ele>
      </trkpt>
      <trkpt lat="44.154996" lon="4.580214">
        <time>1970-01-01T00:00:00+00:00</time>
        <ele>94.0</ele>
      </trkpt>
      <trkpt lat="44.155516" lon="4.580673">
        <time>1970-01-01T00:00:00+00:00</time>
        <ele>93.0</ele>
      </trkpt>
      <trkpt lat="44.155632" lon="4.580869">
        <time>1970-01-01T00:00:00+00:00</time>
        <ele>94.0</ele>
      </trkpt>
      <trkpt lat="44.155843" lon="4.581274">
        <time>1970-01-01T00:00:00+00:00</time>
        <ele>95.0</ele>
      </trkpt>
      <trkpt lat="44.156012" lon="4.581554">
        <time>1970-01-01T00:00:00+00:00</time>
        <ele>97.0</ele>
      </trkpt>
      <trkpt lat="44.156018" lon="4.581632">
        <time>1970-01-01T00:00:00+00:00</time>
        <ele>98.0</ele>
      </trkpt>
      <trkpt lat="44.156019" lon="4.581631">
        <time>1970-01-01T00:00:00+00:00</time>
        <ele>98.0</ele>
      </trkpt>
      <trkpt lat="44.156175" lon="4.581575">
        <time>1970-01-01T00:00:00+00:00</time>
        <ele>98.0</ele>
      </trkpt>
      <trkpt lat="44.156593" lon="4.581631">
        <time>1970-01-01T00:00:00+00:00</time>
        <ele>98.0</ele>
      </trkpt>
      <trkpt lat="44.157088" lon="4.581599">
        <time>1970-01-01T00:00:00+00:00</time>
        <ele>97.0</ele>
      </trkpt>
      <trkpt lat="44.157324" lon="4.581629">
        <time>1970-01-01T00:00:00+00:00</time>
        <ele>96.0</ele>
      </trkpt>
      <trkpt lat="44.157407" lon="4.581659">
        <time>1970-01-01T00:00:00+00:00</time>
        <ele>96.0</ele>
      </trkpt>
      <trkpt lat="44.157517" lon="4.581808">
        <time>1970-01-01T00:00:00+00:00</time>
        <ele>96.0</ele>
      </trkpt>
      <trkpt lat="44.157686" lon="4.581986">
        <time>1970-01-01T00:00:00+00:00</time>
        <ele>97.0</ele>
      </trkpt>
      <trkpt lat="44.157909" lon="4.581749">
        <time>1970-01-01T00:00:00+00:00</time>
        <ele>92.0</ele>
      </trkpt>
      <trkpt lat="44.158276" lon="4.581535">
        <time>1970-01-01T00:00:00+00:00</time>
        <ele>86.0</ele>
      </trkpt>
      <trkpt lat="44.158364" lon="4.581463">
        <time>1970-01-01T00:00:00+00:00</time>
        <ele>83.0</ele>
      </trkpt>
      <trkpt lat="44.160471" lon="4.58193">
        <time>1970-01-01T00:00:00+00:00</time>
        <ele>74.0</ele>
      </trkpt>
      <trkpt lat="44.161556" lon="4.582126">
        <time>1970-01-01T00:00:00+00:00</time>
        <ele>73.0</ele>
      </trkpt>
      <trkpt lat="44.161859" lon="4.582175">
        <time>1970-01-01T00:00:00+00:00</time>
        <ele>73.0</ele>
      </trkpt>
      <trkpt lat="44.162037" lon="4.582177">
        <time>1970-01-01T00:00:00+00:00</time>
        <ele>73.0</ele>
      </trkpt>
      <trkpt lat="44.162159" lon="4.582157">
        <time>1970-01-01T00:00:00+00:00</time>
        <ele>72.0</ele>
      </trkpt>
      <trkpt lat="44.162249" lon="4.582186">
        <time>1970-01-01T00:00:00+00:00</time>
        <ele>72.0</ele>
      </trkpt>
      <trkpt lat="44.162742" lon="4.581864">
        <time>1970-01-01T00:00:00+00:00</time>
        <ele>69.0</ele>
      </trkpt>
      <trkpt lat="44.163312" lon="4.581887">
        <time>1970-01-01T00:00:00+00:00</time>
        <ele>68.0</ele>
      </trkpt>
      <trkpt lat="44.163729" lon="4.581967">
        <time>1970-01-01T00:00:00+00:00</time>
        <ele>67.0</ele>
      </trkpt>
      <trkpt lat="44.164299" lon="4.582041">
        <time>1970-01-01T00:00:00+00:00</time>
        <ele>66.0</ele>
      </trkpt>
      <trkpt lat="44.164607" lon="4.582092">
        <time>1970-01-01T00:00:00+00:00</time>
        <ele>66.0</ele>
      </trkpt>
      <trkpt lat="44.165011" lon="4.582216">
        <time>1970-01-01T00:00:00+00:00</time>
        <ele>65.0</ele>
      </trkpt>
      <trkpt lat="44.167087" lon="4.582977">
        <time>1970-01-01T00:00:00+00:00</time>
        <ele>62.0</ele>
      </trkpt>
      <trkpt lat="44.167138" lon="4.582723">
        <time>1970-01-01T00:00:00+00:00</time>
        <ele>61.0</ele>
      </trkpt>
      <trkpt lat="44.167126" lon="4.582619">
        <time>1970-01-01T00:00:00+00:00</time>
        <ele>61.0</ele>
      </trkpt>
      <trkpt lat="44.166913" lon="4.581384">
        <time>1970-01-01T00:00:00+00:00</time>
        <ele>56.0</ele>
      </trkpt>
      <trkpt lat="44.166617" lon="4.579981">
        <time>1970-01-01T00:00:00+00:00</time>
        <ele>58.0</ele>
      </trkpt>
      <trkpt lat="44.166607" lon="4.579805">
        <time>1970-01-01T00:00:00+00:00</time>
        <ele>58.0</ele>
      </trkpt>
      <trkpt lat="44.166607" lon="4.579454">
        <time>1970-01-01T00:00:00+00:00</time>
        <ele>58.0</ele>
      </trkpt>
      <trkpt lat="44.166849" lon="4.576888">
        <time>1970-01-01T00:00:00+00:00</time>
        <ele>65.0</ele>
      </trkpt>
      <trkpt lat="44.166858" lon="4.576527">
        <time>1970-01-01T00:00:00+00:00</time>
        <ele>68.0</ele>
      </trkpt>
      <trkpt lat="44.166843" lon="4.576337">
        <time>1970-01-01T00:00:00+00:00</time>
        <ele>68.0</ele>
      </trkpt>
      <trkpt lat="44.166814" lon="4.576185">
        <time>1970-01-01T00:00:00+00:00</time>
        <ele>69.0</ele>
      </trkpt>
      <trkpt lat="44.166761" lon="4.576019">
        <time>1970-01-01T00:00:00+00:00</time>
        <ele>69.0</ele>
      </trkpt>
      <trkpt lat="44.166723" lon="4.575897">
        <time>1970-01-01T00:00:00+00:00</time>
        <ele>69.0</ele>
      </trkpt>
      <trkpt lat="44.167033" lon="4.575801">
        <time>1970-01-01T00:00:00+00:00</time>
        <ele>70.0</ele>
      </trkpt>
      <trkpt lat="44.167063" lon="4.575929">
        <time>1970-01-01T00:00:00+00:00</time>
        <ele>70.0</ele>
      </trkpt>
      <trkpt lat="44.167097" lon="4.575916">
        <time>1970-01-01T00:00:00+00:00</time>
        <ele>70.0</ele>
      </trkpt>
    </trkseg>
  </trk>
</gpx>
